Location: Katzenstein
(51.7484°N, 10.2155°E)
Time: 08:33:48
(UTC+00:00)

Cosmos 1666 Rocket - Pass Details

Date: 17 February 2020
Orbit: 603 x 634 km, 82.5° (Epoch: 31 March)

Event Time Altitude Azimuth Distance (km) Brightness Sun altitude
Rises 05:42:57 0° 346° (NNW) 2,938 6.8 -8.0°
Reaches altitude 10° 05:45:14 10° 342° (NNW) 2,021 5.9 -7.7°
Maximum altitude 05:49:36 55° 265° (W) 754 3.7 -7.0°
Drops below altitude 10° 05:53:55 10° 188° (S) 1,988 6.2 -6.4°
Sets 05:56:09 0° 184° (S) 2,884 7.1 -6.0°
